User: anonymous   Login
Location: Unspecified
(0.0000°N, 0.0000°E)
Time: 06:30:55
(UTC+02:00)
Language:

SJ-6B - Orbit

View from above orbital plane
View from above orbital plane
View from above satellite
View from above satellite

Ground track
Ground track

The orbit data is extracted from the following two-line orbital elements,

1 28415U 04035C   17267.66910699 -.00000068  00000-0 -79902-8 0  9992
2 28415  97.7394 297.3078 0053243 142.2637 218.2343 15.06288034713550
Epoch (UTC): 24 September 2017 16:03:30
Eccentricity: 0.0053243
inclination: 97.7394°
perigee height: 510 km
apogee height: 584 km
right ascension of ascending node: 297.3078°
argument of perigee: 142.2637°
revolutions per day: 15.06288034
mean anomaly at epoch: 218.2343°
orbit number at epoch: 71355

The dashed part of the orbit path shows where the satellite is in the earth's shadow,  

DLR